Content
SEND FEEDBACK

Daily
Averages
Monthly
Summary
Switzerland

VERSOIX, SWITZERLAND


Home > Europe > Switzerland
Elevation: 1365 feet     Latitude: 46 12N     Longitude: 006 12E

WEATHER
 
SELECT A DAY
Number of Records: 306,285;   Date Range: 7/1/96 - 9/18/14
 
SHARE

PRINT THIS DATA

[ ← Previous Day ]
WEATHER ALMANAC - SEPTEMBER 25, 2013
[ Next Day → ]
[ °C ]   °F
Weather ElementAverageHighLow
Temperature62.7 °F77 °F (4:50 pm)50 °F (2:50 am)
Dewpoint54.6 °F60.8 °F (10:20 pm)48 °F (6:00 am)
Humidity75.3 %100 % (1:20 am)40 % (3:00 pm)
Barometer29.96 in30.01 in (12:20 am)29.87 in (6:00 pm)
Wind Speed4.8 mph13.8 mph (3:00 pm)
Weather ElementAverage
Visibility7.2 mi
Wind DirectionSSE (156.7 °)

Weather ElementTotal
Precipitation---
Heating Degree Days1.5 (Base 65)
Growing Degree Days13.5 (Base 50)
Averaged from 66 records on September 25, 2013
WEATHER CONDITIONS BREAKOUT
WIND DIRECTION BREAKOUT
WEATHER BY HOUR - SEPTEMBER 25, 2013
[ °C ]   °F
Local TimeTemperatureDewpointHumidityBarometerVisibilityWind DirectionWind SpeedGust SpeedPrecipitationEventsConditions
12:20 AM53.6 °F51.8 °F94 %30.01 inCalmClear
12:50 AM51.8 °F50.0 °F94 %29.98 inCalmClear
1:00 AM52.0 °F50.0 °F89 %30.00 inNW (320°)2.3 mph
1:20 AM51.8 °F51.8 °F100 %30.01 inCalmClear
1:50 AM51.8 °F50.0 °F94 %29.98 inCalmClear
2:00 AM52.0 °F49.0 °F85 %30.00 in7.0 miWSW (240°)1.2 mphMist
2:20 AM51.8 °F50.0 °F94 %29.98 inCalmClear
2:50 AM50.0 °F50.0 °F100 %29.98 inWNW (300°)1.2 mphClear
3:00 AM52.0 °F50.0 °F89 %30.00 inWest (260°)2.3 mph
3:50 AM50.0 °F50.0 °F100 %29.98 inCalmClear
4:00 AM51.0 °F49.0 °F90 %29.99 inWest (270°)1.2 mph
4:20 AM50.0 °F50.0 °F100 %29.98 inCalmClear
4:50 AM50.0 °F48.2 °F94 %29.98 inCalmClear
5:20 AM50.0 °F48.2 °F94 %29.98 inNW (320°)3.5 mphClear
5:50 AM50.0 °F50.0 °F100 %29.98 inCalmClear
6:00 AM51.0 °F48.0 °F86 %29.99 inWSW (250°)1.2 mph
6:20 AM50.0 °F50.0 °F100 %29.98 inVariable1.2 mphClear
6:50 AM50.0 °F50.0 °F100 %29.98 in6.2 miVariable1.2 mphPartly Cloudy
7:00 AM51.0 °F48.0 °F87 %29.99 inNW (310°)1.2 mph
7:20 AM50.0 °F50.0 °F100 %29.98 in6.2 miVariable1.2 mphPartly Cloudy
7:50 AM50.0 °F50.0 °F100 %29.98 inVariable2.3 mphClear
8:00 AM51.0 °F49.0 °F89 %29.99 in11.0 miWNW (300°)2.3 mphScattered Clouds
8:20 AM51.8 °F51.8 °F100 %29.98 in6.2 miCalmPartly Cloudy
8:50 AM55.4 °F53.6 °F94 %29.98 in6.2 miCalmPartly Cloudy
9:00 AM56.0 °F51.0 °F80 %29.98 inWSW (250°)2.3 mph
9:20 AM59.0 °F55.4 °F88 %29.98 in6.2 miVariable1.2 mphScattered Clouds
9:50 AM60.8 °F55.4 °F82 %29.98 in6.2 miVariable1.2 mphMostly Cloudy
10:00 AM60.0 °F54.0 °F76 %29.98 inWSW (250°)2.3 mph
10:20 AM60.8 °F55.4 °F82 %30.01 in6.2 miVariable2.3 mphScattered Clouds
10:50 AM64.4 °F57.2 °F77 %30.01 in6.2 miWSW (250°)3.5 mphPartly Cloudy
11:20 AM64.4 °F57.2 °F77 %29.98 in6.2 miWSW (240°)5.8 mphPartly Cloudy
11:50 AM66.2 °F57.2 °F73 %29.98 in6.2 miWSW (240°)4.6 mphPartly Cloudy
12:00 PM68.0 °F55.0 °F54 %29.95 inSW (220°)5.8 mph
12:20 PM69.8 °F57.2 °F64 %29.98 in6.2 miSW (230°)9.2 mphPartly Cloudy
12:50 PM71.6 °F57.2 °F60 %29.98 in6.2 miSSW (210°)9.2 mphScattered Clouds
1:00 PM71.0 °F56.0 °F49 %29.93 inSSW (200°)10.4 mph
1:20 PM73.4 °F59.0 °F61 %29.98 in6.2 miWSW (240°)10.4 mphScattered Clouds
1:50 PM73.4 °F57.2 °F57 %29.98 in6.2 miSW (220°)11.5 mphScattered Clouds
2:00 PM73.0 °F56.0 °F44 %29.91 in22.0 miSW (230°)11.5 mphScattered Clouds
2:20 PM75.2 °F57.2 °F53 %29.95 in6.2 miSW (220°)11.5 mphScattered Clouds
2:50 PM75.2 °F57.2 °F53 %29.95 in6.2 miSW (220°)11.5 mphMostly Cloudy
3:00 PM75.0 °F55.0 °F40 %29.89 inSW (220°)13.8 mph
3:20 PM75.2 °F57.2 °F53 %29.95 in6.2 miSSW (210°)11.5 mphMostly Cloudy
3:50 PM75.2 °F59.0 °F57 %29.95 inSW (220°)12.7 mphClear
4:00 PM76.0 °F57.0 °F41 %29.88 inSW (220°)12.7 mph
4:20 PM75.2 °F57.2 °F53 %29.95 in6.2 miSSW (210°)12.7 mphMostly Cloudy
4:50 PM77.0 °F57.2 °F50 %29.92 in6.2 miSW (230°)11.5 mphMostly Cloudy
5:20 PM75.2 °F57.2 °F53 %29.92 in6.2 miSW (220°)11.5 mphMostly Cloudy
5:50 PM75.2 °F57.2 °F53 %29.92 in6.2 miWSW (240°)9.2 mphScattered Clouds
6:00 PM75.0 °F56.0 °F41 %29.87 inSW (230°)10.4 mph
6:20 PM75.2 °F57.2 °F53 %29.92 in6.2 miSW (230°)10.4 mphScattered Clouds
6:50 PM73.4 °F57.2 °F57 %29.92 in6.2 miSW (230°)8.1 mphScattered Clouds
7:00 PM72.0 °F56.0 °F47 %29.89 inSW (230°)8.1 mph
7:20 PM71.6 °F57.2 °F60 %29.95 in6.2 miSSW (210°)5.8 mphMostly Cloudy
7:50 PM69.8 °F59.0 °F68 %29.95 in6.2 miSW (230°)4.6 mphMostly Cloudy
8:00 PM70.0 °F57.0 °F55 %29.91 in19.0 miSSW (210°)9.2 mphScattered Clouds
8:20 PM69.8 °F59.0 °F68 %29.95 in6.2 miSW (230°)4.6 mphRainLight Rain Showers
8:50 PM68.0 °F59.0 °F73 %29.95 inWest (260°)3.5 mphClear
9:00 PM67.0 °F58.0 °F65 %29.93 inWest (280°)3.5 mph
9:20 PM68.0 °F59.0 °F73 %29.98 inVariable2.3 mphClear
9:50 PM66.2 °F59.0 °F78 %29.98 inVariable2.3 mphClear
10:00 PM65.0 °F59.0 °F74 %29.94 inWSW (250°)3.5 mph
10:20 PM64.4 °F60.8 °F88 %29.98 in6.2 miVariable1.2 mphMostly Cloudy
10:50 PM64.4 °F60.8 °F88 %29.98 in6.2 miVariable1.2 mphScattered Clouds
11:20 PM62.6 °F59.0 °F88 %29.98 in6.2 miVariable1.2 mphPartly Cloudy
11:50 PM62.6 °F59.0 °F88 %29.98 in6.2 miSouth (190°)3.5 mphScattered Clouds
Hourly data recorded from LSGG, located miles away from Versoix, Switzerland







STORIES FROM OUR PARTNERS